COSMOS 1275 DEB, 42198

Orbit data source: Space-Track

COSMOS 1275 DEB, 42198 is space debris in LEO originally from a launch on Thu, 04 Jun 1981 UTC launched from the Plesetsk Missile And Space Complex (PKMTR). Debris objects in space refer to the collection of defunct objects orbiting the Earth. Examples of debris include non-operational satellites, rocket bodies, and fragments generated from explosions, collisions, or faulty payload assembly.

Loading next visibility...
COSMOS 1275 DEB details
Identifier
42198, 1981-053TN
Orbit
LEO
Last TLE update2 months ago
Origin
Flag of CISGUKOS (CIS)
ManufacturerUnknown
MissionSpacecraft
Bus & MotorUnknown
MassUnknown
Launch date (UTC)
1981-06-04 (44 years ago)
Launch vehicleUnknown
Launch site
Plesetsk Missile And Space Complex (PKMTR)
Object type
Payload
Rocket body
Debris
Shape & HBRUnknown
Radar Cross SectionSmall (<0.1 m²)

Expand to show TLE details & history

TLE from 2 months ago
0 COSMOS 1275 DEB
1 42198U 81053TN  24286.02299061  .00006623  00000-0  54198-2 0  9998
2 42198  82.8091  32.2920 0036937 313.4070  46.4020 13.89053029551500
Epoch: 2024-10-12T00:33Z
Definitive object data (Epoch: 2024-10-12T00:33:06.388Z)
Latitude-0.00002°
Longitude2.93059°
Altitude916.296 km
Speed7.403 km/s
True Right ascension02h 09m 10s
True Declination0° 00' 00"
Sunlit
Object was in full shadow at TLE epoch
Visualization TLE readout
Latitude80.4963°
Longitude86.13068°
Altitude921.68 km
Speed7.408 km/s
Apparent Right ascension20h 21m 01s
Apparent Declination39° 59' 53"
Sunlit
Object is in daylight
Visualization observer readout
Local Sidereal Time08:11:26
Azimuth358.134° N
Elevation-10.056°
Doppler factor1
Orbital elements
Apogee altitude956.077 km
Perigee altitude902.095 km
Semi-major axis7,307.223 km
Eccentricity0.0036937
Inclination82.8091°
RAAN32.292°
Arg. of periapsis313.407°
True anomaly46.70951°
Mean anomaly46.402°
Eccentric anomaly46.55565°
Mean motion3.47468 °/min
BSTAR0.0054198
Orbital period103.61 mins
Loading maneuver chart data...
Loading historical data...
Loading historical data...
Loading historical data...
Loading historical data...
Loading historical data...
Loading historical data...
Loading historical data...

COSMOS 1275 DEB Visibility forecast

Observer location: undefined°, undefined

Span
Click to sort rows by Start time (UTC) header in descending order
Start Az.
Max El. time (UTC)
Max El. Az.
Max El.
End time (UTC)
End Az.
10 mins2024-12-13 11:32:37.658Z3.551° NNE2024-12-13 11:37:37.658Z84.702° E39.868°2024-12-13 11:42:37.658Z156.6° SSE
6 mins2024-12-13 13:18:37.658Z308.766° NW2024-12-13 13:21:37.658Z273.096° WNW17.52°2024-12-13 13:24:37.658Z239.632° WSW
4 mins2024-12-13 23:13:37.658Z96.362° ESE2024-12-13 23:14:37.658Z85.261° E14.481°2024-12-13 23:17:37.658Z53.308° ENE
10 mins2024-12-14 00:53:37.658Z195.139° SSW2024-12-14 00:58:37.658Z279.396° WNW43.558°2024-12-14 01:03:37.658Z1.61° NNE
|